CAPE
2086 1669 1609 1666 1831 1890 1699 1641 1928 1615 1625 1510 1761 1898 1644 955 1078 849 593 629 522 371 425 371 344 547 722 869 778 701 664 462 730 795 495 367 1052 1359 1890 1476 1243 1266 1671 1406 1442 1439 1390 1247 1014 830 610 626 610 386 316 201 50 8 4 3 4 10 11 14 10 11 4 8 10 6 1 1 4 22 195 242 346 421 444 406 298 278 501 494 647
1999 2052 1644 1440 1591 1893 1566 1097 1793 2119 1721 1669 2104 1967 2070 2059 1792 1208 901 788 1172 1190 707 454 352 573 675 474 930 903 814 1039 1157 870 983 861 502 2774 1569 1262 1089 1356 1293 1547 1514 1557 1472 1411 1333 1129 715 929 720 522 473 320 63 65 4 7 8 11 14 15 13 12 4 6 6 6 2 2 5 12 33 130 300 358 329 445 424 424 426 480 470
2105 2092 1397 1145 1402 1163 1277 1100 1610 1679 1977 2115 2287 2115 2559 2022 2339 2141 1942 1470 1411 1079 994 954 701 342 902 425 742 410 384 637 1126 578 874 946 613 1373 1767 1580 1360 1459 1379 1368 1725 1115 1309 1547 1564 1372 1052 716 1013 831 658 439 286 78 0 7 7 10 16 14 16 12 8 8 7 11 7 4 6 8 17 120 198 347 276 329 369 339 451 400 357
2519 1819 1880 1180 1252 881 1135 1355 1711 1790 1579 1403 1826 1521 1797 2121 2017 2648 2578 2568 2157 2040 1670 1424 904 605 618 712 802 730 728 751 769 1170 611 901 1467 1702 1496 1081 1455 1755 1858 1390 1466 1032 948 1380 1567 1602 1533 1124 954 763 993 701 461 197 44 55 22 7 10 13 13 15 12 10 9 11 11 6 7 10 8 43 170 281 236 290 288 290 304 252 223
1841 2042 1678 1734 1431 1235 954 1049 1529 1128 991 1340 1683 1906 1759 1950 2855 2014 2551 2160 1667 1786 1780 1735 1639 1560 1273 895 1153 1030 970 1041 1417 1400 1136 1539 1928 1596 1561 1108 915 1134 1342 1584 1403 978 1036 1134 1516 1617 1457 1330 1027 693 887 1064 692 249 184 114 47 3 5 12 19 20 17 14 11 12 17 10 9 8 8 23 84 201 166 196 238 272 268 170 141
2150 2018 1649 2206 1768 1746 1272 1532 1395 1385 1496 2163 2127 1063 1817 1938 1144 1848 2094 1969 1949 1941 2072 1737 1930 1562 1472 1602 1463 1582 1531 1467 1470 1641 1898 1979 1741 1769 1814 1289 1309 1778 1083 1447 1528 1103 1002 986 1171 1053 1232 1380 1407 1258 803 684 765 544 337 194 96 3 4 11 18 25 21 22 13 12 18 20 8 8 6 16 42 129 176 161 172 192 176 94 144
1841 2241 1940 1777 1612 1613 1822 1770 1682 1232 1089 2209 2236 1975 1827 1606 1888 1938 1734 1776 1714 1476 1521 1625 1594 1526 1527 1386 1636 1760 1900 1897 1784 1731 1718 1882 2612 2366 1639 1333 2045 1313 1028 1028 1705 1319 865 862 908 979 914 1095 1412 1253 1404 1162 811 575 477 243 221 63 0 6 12 22 26 23 21 10 20 39 22 9 4 4 24 78 68 99 164 109 87 80 16
1910 2217 2004 1730 1706 1607 1512 2020 1958 1927 1833 1698 1804 1536 1529 1762 2048 1854 1759 1714 1570 1456 1554 1652 1721 1630 1688 1860 1882 1870 1743 1583 1593 1740 1771 1999 1836 2105 2127 1657 1471 1567 1437 1273 1283 1358 1189 997 955 850 832 896 1294 1589 1623 1542 936 929 747 451 244 142 0 0 3 18 25 31 26 15 17 24 42 18 9 4 6 16 92 91 100 100 98 85 43
1882 2026 1930 1687 1762 1727 1976 2160 2099 2000 2129 2052 1930 1488 1600 1662 1798 1678 1689 1586 1502 1308 1500 1576 1621 1658 1558 1513 1648 1682 1693 1697 1666 1695 1808 1988 1849 1833 2276 2073 2028 2017 1754 1327 1743 1364 1309 1419 1309 1002 884 786 936 1044 1004 1405 1104 974 935 577 386 256 73 0 0 7 22 33 40 21 19 21 38 43 27 6 3 5 45 56 89 82 141 63 66
1954 1730 2099 1707 1547 1691 1512 1882 1817 2126 1982 1906 1841 1857 1815 1599 1439 1554 1594 1520 1318 1222 1149 1138 1210 1258 1195 1285 1448 1545 1445 1454 1542 1570 1752 1424 1805 1748 1813 1981 1632 1662 2208 2005 1592 1241 1027 1087 1330 1233 1046 781 735 801 756 724 994 782 758 582 572 312 211 23 10 2 14 24 23 17 22 36 37 42 31 23 7 4 3 63 57 84 74 79 52
1692 1696 1854 1564 1457 1425 1433 1367 1419 1646 1592 1094 1030 1086 1044 1076 1094 956 1104 1045 1022 996 993 908 893 997 1097 1178 1333 1489 1520 1491 1499 1591 1651 2013 1836 1853 1639 1748 2028 2184 2137 2402 2123 1635 1437 1251 1146 1233 1282 1184 822 733 650 640 730 845 616 781 936 650 300 119 75 9 8 17 19 19 24 98 42 22 38 28 16 7 5 27 67 71 70 72 77
1194 1208 1346 1393 1373 1253 1224 1067 1052 1000 1026 851 877 675 808 811 825 917 886 828 843 891 786 767 758 908 1018 1274 1449 1404 1397 1421 1508 1607 1831 1890 1812 2015 1766 1548 1442 1670 2355 2109 2336 2138 1736 1250 1120 986 1260 1182 1034 807 713 741 662 939 915 397 751 818 453 246 131 95 25 13 25 25 25 88 50 34 38 38 30 14 10 16 57 67 50 57 68
905 762 639 725 950 953 939 696 515 604 844 727 689 534 453 629 516 669 552 565 662 666 704 541 684 717 734 821 1004 1090 1255 1340 1581 1897 1954 2242 2131 1965 1889 1809 1935 1673 1730 2647 2001 2072 2227 1865 1467 1221 1142 1142 1030 914 751 758 763 700 896 752 316 572 619 422 236 118 158 66 59 55 95 47 94 64 40 36 32 20 19 30 26 68 57 61 43
474 464 489 472 515 514 418 426 368 400 319 237 280 279 302 298 238 136 270 208 283 433 309 451 556 635 671 808 856 1067 1020 1716 1907 1964 2038 1784 1787 1804 1964 2194 2011 1570 1560 1699 1652 2119 1874 1938 1988 1645 1276 1110 1059 923 878 694 689 666 772 938 918 410 628 734 321 166 162 130 136 94 148 96 74 74 44 20 30 24 23 30 39 49 57 57 23
331 494 497 403 328 380 348 270 293 146 289 276 246 31 68 189 192 78 22 40 41 117 183 310 343 240 484 629 612 768 984 2086 1048 870 815 1270 1744 1683 1950 2019 2132 2115 1799 1643 1525 1470 1736 1548 1420 1678 1570 1233 1058 1005 876 804 662 574 554 575 747 946 590 660 423 440 182 205 185 170 171 203 51 98 43 30 34 34 23 23 42 43 43 40 23
17 245 392 254 262 298 300 282 26 2 0 1 0 0 2 9 23 10 2 0 0 13 91 251 194 121 324 360 535 691 575 628 285 260 544 803 861 714 1235 1758 1966 1891 1794 1686 1635 1352 1263 1480 1309 1461 1836 1653 1302 968 834 784 775 711 516 521 509 686 705 402 671 614 219 187 274 263 171 211 55 69 55 32 43 51 35 49 37 40 39 30 28
0 0 0 0 0 0 118 0 2 0 0 0 0 0 0 0 0 0 2 4 4 0 22 22 18 190 140 170 181 131 156 117 71 150 654 168 389 384 516 692 826 887 1018 855 795 1167 1116 1306 1396 1626 1876 1875 1605 1264 920 752 765 823 740 550 604 488 711 827 700 514 462 244 336 324 294 216 98 84 106 43 63 69 30 40 32 28 30 28 30
0 0 0 0 0 0 0 0 0 0 5 2 0 0 1 0 0 4 2 7 5 2 1 1 0 16 0 0 24 217 48 20 27 91 40 96 161 198 235 217 310 343 500 488 354 352 570 595 648 1614 1849 1928 1929 1659 1328 1012 773 603 542 548 558 571 497 630 958 628 233 320 322 428 328 358 146 46 128 48 58 96 26 35 28 25 28 21 27
0 0 0 0 0 0 0 0 1 0 0 0 0 0 0 2 0 2 0 0 2 0 0 0 0 0 0 0 0 0 3 8 8 6 0 0 0 1 3 20 0 0 0 37 22 36 192 313 716 1397 1037 1353 1403 1536 1560 1445 1136 743 692 670 590 511 498 445 435 702 302 487 212 704 343 191 208 63 150 75 94 52 72 32 27 24 29 21 22
0 0 0 0 0 0 0 0 0 0 0 0 0 0 1 0 0 1 0 3 0 0 0 0 0 0 0 0 0 0 0 0 0 0 4 2 0 0 0 0 0 0 0 0 0 0 0 0 0 14 1145 1129 1052 1259 1445 1501 1170 872 679 586 524 575 569 593 445 282 390 440 352 690 636 390 228 95 194 158 126 96 112 43 26 24 19 37 29
0 0 0 0 0 0 0 0 0 0 0 0 0 0 0 0 0 0 0 0 0 3 0 0 0 1 0 0 0 0 0 0 0 0 0 0 0 0 0 0 0 0 0 0 0 0 0 0 0 0 50 1192 886 747 790 914 906 979 777 709 600 492 517 576 519 333 190 109 468 151 559 374 311 270 250 209 161 94 134 103 40 38 29 54 23
0 0 0 0 0 0 0 0 0 0 0 0 0 0 0 0 0 1 0 0 0 1 0 1 1 4 1 1 1 0 0 0 1 2 1 4 4 1 2 0 0 0 0 0 0 0 0 0 0 0 0 204 292 273 333 362 342 409 585 762 894 780 662 618 581 375 139 188 98 457 476 633 448 361 212 283 201 86 141 82 106 36 54 19 35
0 0 0 0 0 0 0 0 0 0 0 0 0 0 0 0 0 0 1 0 0 2 0 2 0 1 1 0 1 0 1 2 4 6 10 7 3 3 4 4 0 0 0 0 0 0 0 0 0 0 220 236 156 324 270 325 152 54 306 462 614 388 424 585 518 419 337 213 225 33 481 644 643 506 194 447 193 148 118 118 55 115 48 62 31
0 0 0 0 0 0 0 0 0 0 0 0 0 0 0 0 0 0 0 1 1 4 0 0 0 0 0 0 0 3 8 5 5 8 9 8 9 5 2 1 0 0 0 0 0 0 0 0 0 0 0 70 192 144 36 0 50 58 0 8 0 12 327 521 399 351 361 259 188 141 45 304 407 322 265 615 294 101 176 162 136 111 130 38 32
0 0 0 0 0 0 0 0 0 0 0 0 0 0 0 0 0 0 0 0 0 4 2 3 2 2 0 0 0 4 0 0 1 6 11 10 8 4 2 4 0 0 0 0 0 0 0 0 0 0 0 0 0 0 3 11 18 9 85 8 0 16 360 436 374 375 296 236 200 166 268 30 301 218 347 213 296 216 113 126 97 16 44 36 26
0 0 0 0 0 0 0 0 0 0 0 0 0 0 0 0 0 0 0 0 0 0 1 2 2 4 0 0 0 1 0 0 0 1 1 3 1 5 4 1 1 0 0 0 0 0 0 0 0 0 0 0 0 0 0 0 7 110 116 0 0 0 118 392 222 502 467 395 337 278 281 164 60 461 498 205 279 322 57 2 1 3 7 15 21
0 0 0 0 0 0 0 0 0 0 0 0 0 0 0 0 0 0 0 0 0 0 0 0 1 1 0 0 2 1 0 0 2 0 1 2 5 5 4 1 0 0 0 0 0 0 0 0 0 0 0 0 0 0 0 0 0 0 44 134 29 27 0 0 308 428 444 418 397 335 272 213 150 7 397 436 274 156 115 0 21 11 2 3 14
0 0 0 0 0 0 0 0 0 0 0 0 0 0 0 0 0 0 0 0 0 0 0 0 0 2 1 3 0 1 0 1 2 3 5 6 3 2 2 4 2 0 0 0 0 0 0 0 0 0 0 0 0 0 0 0 0 0 0 66 141 49 26 0 0 248 428 400 306 273 217 216 259 46 68 383 318 202 164 69 17 0 0 4 4
0 0 0 0 0 0 0 0 0 0 0 0 0 0 0 0 0 0 0 0 0 0 0 0 0 2 2 0 0 0 0 2 2 1 5 2 0 0 1 2 6 4 3 0 0 0 0 0 0 0 0 0 0 0 0 0 0 0 0 0 0 76 11 0 0 0 0 380 268 250 261 250 242 256 137 195 278 313 184 123 50 1 2 0 2
0 0 0 0 0 0 0 0 0 0 0 0 0 0 0 0 0 0 0 0 0 0 0 0 0 0 2 0 0 0 0 1 0 0 1 0 0 0 0 1 5 5 7 4 0 0 0 0 0 0 0 0 0 0 0 0 0 0 0 0 0 0 32 73 74 0 0 119 120 292 299 285 280 270 242 128 102 196 196 154 81 14 0 0 1
0 0 0 0 0 0 0 0 0 0 0 0 0 0 0 0 0 0 0 0 0 0 0 0 0 0 1 2 0 0 0 1 0 0 0 0 0 0 0 0 0 0 2 1 1 0 0 0 0 0 0 0 0 0 0 0 0 0 0 0 0 0 0 0 87 26 0 0 0 336 351 346 294 261 298 244 77 109 209 215 171 97 2 0 0
0 0 0 0 0 0 0 0 0 0 0 0 0 0 0 0 0 0 0 0 0 0 0 0 0 0 0 0 0 0 0 0 0 0 0 0 0 0 0 0 0 0 0 1 2 0 0 0 0 0 0 0 0 0 0 0 0 0 0 0 0 0 0 0 1 28 35 0 61 136 363 407 405 307 255 284 59 31 49 195 162 113 54 0 0
0 0 0 0 0 0 0 0 0 0 0 0 0 0 0 0 0 0 0 0 0 0 1 0 0 0 0 0 0 0 0 0 0 0 0 0 0 0 0 0 0 0 0 2 2 1 0 0 0 0 0 0 0 0 0 0 0 0 0 0 0 0 0 0 1 2 12 41 24 4 102 354 457 467 342 292 331 153 47 0 0 0 41 19 0
0 0 0 0 0 0 0 0 0 0 0 0 0 0 0 0 0 0 0 0 0 0 0 0 0 0 0 0 0 0 0 0 0 0 0 0 0 0 0 0 0 0 0 0 2 1 2 0 0 0 0 0 0 0 0 0 0 0 0 0 0 0 0 0 0 0 23 46 65 0 0 178 414 420 419 349 294 274 96 21 0 33 0 2 0
0 0 0 0 0 0 0 0 0 0 0 0 0 0 0 0 0 0 0 1 0 1 0 0 0 0 0 1 0 0 0 0 0 0 0 0 0 0 0 0 0 0 0 1 2 2 1 1 0 1 0 0 0 0 0 0 0 0 0 0 0 0 0 0 0 0 0 25 117 129 51 19 251 377 370 440 362 314 293 240 97 65 35 0 0
0 0 0 0 0 0 0 0 0 0 0 0 0 0 0 0 0 0 0 0 1 0 0 0 0 0 0 0 0 0 0 0 0 0 0 0 0 0 0 0 0 0 0 3 1 1 1 1 2 1 0 0 1 0 0 0 0 0 0 0 0 0 0 0 0 0 0 0 4 25 52 121 232 330 393 343 392 339 273 297 186 46 80 37 0
0 0 0 0 0 0 0 0 0 0 0 0 0 0 0 0 0 2 0 2 0 0 0 0 0 0 0 0 0 0 0 0 0 0 0 0 0 0 0 0 0 0 0 1 1 1 1 1 1 0 2 1 4 3 2 0 0 0 0 0 0 0 0 0 0 0 0 0 0 0 20 26 68 284 334 200 223 295 289 250 250 145 34 55 39
0 0 0 0 0 0 0 0 0 0 0 0 0 0 0 0 0 3 0 1 2 0 0 0 0 0 0 0 0 0 0 0 0 0 0 0 0 0 0 0 0 0 0 1 1 1 1 2 2 2 0 4 0 0 1 2 2 1 0 0 0 0 0 0 0 0 0 0 0 0 0 5 25 130 215 373 254 162 209 240 236 216 39 0 57
0 0 0 0 0 0 0 0 0 0 0 0 0 0 0 0 0 0 0 0 1 0 0 0 0 0 0 0 0 0 0 0 0 0 0 0 0 0 0 0 0 0 0 1 2 2 1 2 2 2 1 1 2 1 1 4 1 1 1 1 1 1 1 1 0 0 0 0 0 0 0 0 0 0 6 47 229 258 156 222 258 283 222 89 50
0 0 0 0 0 0 0 0 0 0 0 0 0 0 0 0 0 0 2 0 2 0 0 0 0 0 0 0 0 0 0 0 0 0 0 0 0 0 0 0 0 0 1 3 3 4 4 4 4 4 6 5 3 2 1 4 3 1 5 3 3 1 1 3 3 0 0 0 0 0 0 0 11 6 0 0 0 30 63 193 202 245 248 173 90
0 0 0 0 0 0 0 0 0 0 0 0 0 0 0 0 0 0 0 0 0 0 0 0 0 0 0 0 0 0 12 0 0 0 0 0 0 0 0 0 0 0 2 3 5 7 8 6 6 5 6 5 5 4 4 4 5 4 2 6 7 7 4 2 2 1 1 0 0 0 0 1 38 33 15 0 0 0 8 39 142 223 260 167 98
0 0 0 0 0 0 0 0 0 0 0 0 0 0 0 0 0 0 0 2 0 0 0 0 3 0 0 0 1 1 3 0 0 0 0 0 0 0 0 0 0 1 2 3 2 2 5 9 4 3 10 6 2 3 4 5 5 4 4 3 4 1 3 3 1 1 0 0 0 0 0 0 22 45 68 44 10 0 0 22 66 168 279 238 134
0 0 0 0 0 0 0 0 0 0 0 0 0 0 0 0 0 0 0 0 0 0 0 0 1 0 0 0 0 0 0 0 0 0 0 0 0 0 0 0 0 0 1 1 2 2 7 6 4 9 4 2 2 2 2 3 0 4 2 2 4 3 3 3 3 3 3 2 2 2 0 0 0 0 27 73 44 21 5 0 0 100 276 271 186
0 0 0 0 0 0 0 0 0 0 0 0 0 0 0 0 0 0 0 0 0 0 0 0 0 0 0 0 0 0 0 2 0 0 0 0 0 0 0 0 0 0 0 1 2 2 4 7 2 1 1 1 1 2 6 3 3 4 1 1 0 2 2 3 5 3 1 5 2 3 2 2 5 15 19 21 47 47 22 4 2 43 191 339 262
0 0 0 0 0 0 0 0 0 0 0 0 0 0 0 0 0 0 0 1 0 1 0 0 2 0 0 0 0 0 0 0 0 0 0 0 0 0 0 0 0 4 0 0 0 0 0 0 3 2 0 0 0 0 2 1 2 3 12 2 2 4 2 2 2 4 1 4 2 2 0 1 10 7 6 0 0 10 43 18 6 0 56 368 275
0 0 0 0 1 0 0 0 0 0 0 0 0 0 0 0 0 0 0 3 0 0 2 0 1 4 0 0 0 0 0 0 0 0 0 0 0 0 0 0 1 4 1 0 0 0 0 0 0 1 0 3 1 1 1 2 3 13 2 3 2 4 3 3 5 2 2 4 4 3 2 0 2 8 4 0 0 0 4 32 17 3 7 111 334
0 0 0 0 0 1 0 0 0 0 0 0 0 0 0 0 0 0 0 0 0 0 2 0 0 2 0 0 0 0 0 0 0 0 0 0 0 0 0 0 0 0 0 0 0 0 0 0 0 0 0 0 2 4 0 0 0 1 2 13 11 8 13 2 1 2 1 2 2 3 1 0 1 3 2 0 0 0 3 21 26 11 2 32 150
0 0 0 0 0 1 1 0 0 0 0 0 0 0 0 0 0 0 0 0 0 0 1 0 0 1 0 0 0 0 0 0 0 0 0 0 0 0 0 0 0 0 0 0 0 0 0 0 0 0 0 0 0 0 0 0 2 2 5 12 2 8 2 2 4 1 5 1 5 3 1 2 2 1 2 1 2 2 0 5 26 19 6 20 61
0 0 0 0 0 0 0 0 0 0 0 0 0 0 0 0 0 0 0 0 0 0 0 0 0 0 0 0 0 0 0 0 0 0 0 0 0 0 0 0 0 0 0 0 0 0 0 0 0 0 0 0 0 0 0 0 3 2 4 16 8 1 1 1 3 4 2 1 1 2 3 1 1 1 1 1 1 5 4 4 17 15 9 6 0
0 0 0 0 0 0 0 0 0 0 0 0 0 0 0 0 0 0 0 0 0 0 0 0 0 0 0 2 1 0 0 0 0 0 0 0 0 0 0 0 0 0 0 0 0 0 0 0 0 0 0 0 0 0 0 1 2 3 0 2 1 1 7 2 3 2 1 3 2 0 0 0 3 2 3 1 0 0 3 7 25 29 5 0 16
0 0 0 0 0 0 0 0 0 0 0 0 0 0 0 0 0 0 0 0 0 0 0 0 0 0 0 1 0 0 0 0 0 0 0 0 0 0 0 0 0 0 0 0 0 0 0 0 0 0 0 0 0 0 0 1 3 3 1 12 5 10 2 2 2 3 5 2 2 1 2 1 1 2 3 15 20 10 6 0 2 25 24 29 72
Wind_Speed
13 11 10 11 10 10 7 7 10 9 8 10 10 9 11 11 12 10 12 14 12 14 13 16 19 18 20 19 19 19 19 18 20 21 20 20 21 27 28 29 28 29 30 30 29 26 23 20 18 17 15 17 25 22 18 14 nan nan nan nan nan nan nan nan nan nan nan nan nan nan nan nan nan nan 13 13 13 13 14 14 16 12 14 14 14
14 13 12 12 13 11 11 9 10 9 8 8 8 10 10 10 13 11 11 14 16 14 16 17 17 17 18 20 21 21 20 21 22 23 22 20 21 22 29 30 29 28 27 28 27 26 24 22 19 17 17 15 24 24 20 17 nan nan nan nan nan nan nan nan nan nan nan nan nan nan nan nan nan nan nan 12 13 13 13 14 16 16 15 14 13
15 16 19 13 12 13 12 11 10 9 9 8 7 8 13 13 13 13 13 13 14 15 15 15 17 19 21 20 20 19 20 21 23 23 22 24 30 22 23 22 21 23 24 25 26 26 20 21 20 19 19 17 25 24 22 20 16 nan nan nan nan nan nan nan nan nan nan nan nan nan nan nan nan nan nan 12 12 12 13 13 15 15 15 15 14
13 16 16 20 17 17 12 14 14 13 13 11 9 8 9 11 12 15 15 12 11 13 15 15 17 17 17 19 21 22 23 22 25 26 24 25 30 26 24 24 23 22 22 23 26 32 26 22 20 19 17 17 12 13 23 21 19 16 nan nan nan nan nan nan nan nan nan nan nan nan nan nan nan nan nan nan 10 12 12 13 14 16 15 15 14
14 12 15 21 20 23 19 17 19 15 12 13 14 10 12 13 16 15 14 15 15 16 16 17 18 18 19 19 19 20 22 22 21 24 26 25 26 26 23 20 22 22 23 22 25 31 26 22 19 17 16 15 14 13 18 22 19 18 17 15 nan nan nan nan nan nan nan nan nan nan nan nan nan nan nan nan nan 10 11 12 14 14 15 13 13
15 14 14 13 14 16 19 18 23 24 18 17 20 19 16 17 15 16 18 18 18 18 19 19 19 20 21 22 23 23 23 23 23 24 26 27 29 28 26 24 22 26 24 22 26 28 27 25 22 18 14 14 14 13 13 16 16 16 16 17 nan nan nan nan nan nan nan nan nan nan nan nan nan nan nan nan nan 10 10 11 13 13 14 nan 13
17 16 14 14 15 15 17 16 17 23 23 20 19 19 20 18 19 17 16 16 16 16 16 17 17 18 19 20 20 21 23 23 23 23 24 26 28 30 28 25 22 23 26 23 24 27 26 26 23 21 19 16 13 13 13 12 13 15 17 17 17 nan nan nan nan nan nan nan nan nan nan nan nan nan nan nan nan nan nan nan 12 12 nan nan nan
18 20 16 16 17 19 16 16 16 18 19 19 20 19 18 18 19 20 18 18 17 17 17 18 19 18 19 20 21 22 22 22 22 22 24 25 27 26 29 30 25 20 21 25 23 24 27 25 26 25 23 19 16 14 13 12 12 16 18 16 16 18 nan nan nan nan nan nan nan nan nan nan nan nan nan nan nan nan nan nan 10 nan nan nan nan
18 20 19 18 18 21 20 18 21 20 20 21 22 21 21 20 20 20 20 19 18 17 17 18 19 19 19 20 21 22 23 23 23 24 24 25 25 24 26 28 28 28 25 24 25 22 21 24 26 26 24 23 21 20 15 8 9 12 16 16 15 18 nan nan nan nan nan nan nan nan nan nan nan nan nan nan nan nan nan nan nan nan 10 nan nan
19 19 18 19 20 21 22 21 23 22 21 22 23 23 23 23 21 22 21 21 20 20 19 19 19 19 20 20 20 22 22 23 24 25 26 26 24 24 24 25 26 26 27 25 25 26 24 24 27 27 27 26 25 25 22 14 9 10 13 15 16 15 17 nan nan nan nan nan nan nan nan nan nan nan nan nan nan nan nan nan nan nan nan nan nan
20 18 19 20 21 22 23 23 24 24 23 22 23 23 23 23 22 21 21 22 21 21 20 20 19 19 18 19 21 22 23 24 25 26 26 28 27 25 24 24 25 26 26 26 26 25 25 23 23 23 24 28 27 26 25 21 13 11 13 14 17 15 15 17 nan nan nan nan nan nan nan nan nan nan nan nan nan nan nan nan nan nan nan nan nan
21 21 20 21 22 23 23 23 24 25 25 25 24 24 24 23 23 22 21 22 23 23 22 21 20 19 19 20 21 21 22 25 26 26 27 27 26 25 25 24 24 24 26 25 25 24 24 23 21 21 23 25 29 27 26 24 19 14 13 14 15 15 15 14 16 nan nan nan nan nan nan nan nan nan nan nan nan nan nan nan nan nan nan nan nan
22 23 22 22 23 23 24 26 25 25 26 26 26 27 26 26 25 25 25 24 25 25 26 22 20 20 19 19 20 21 20 23 27 28 28 27 26 25 25 23 25 24 23 26 24 24 24 24 23 22 22 23 24 27 27 25 23 21 17 14 14 15 16 16 15 15 15 nan nan nan nan nan nan nan nan nan nan nan nan nan nan nan nan nan nan
22 22 23 22 22 23 24 26 26 26 27 28 28 28 27 28 28 27 28 26 26 27 27 25 26 24 19 18 21 24 21 25 29 27 26 25 25 26 27 26 27 25 24 23 24 25 24 25 24 23 22 22 23 24 25 25 24 24 21 18 15 15 15 17 15 13 14 13 11 nan 8 nan nan nan nan nan nan nan nan nan nan nan nan nan nan
22 23 22 22 22 23 25 26 27 27 28 29 29 nan nan 28 30 nan nan nan nan 30 28 29 27 26 23 24 24 22 24 30 26 25 20 21 25 25 26 28 27 27 26 25 24 22 23 24 24 23 22 21 21 22 23 23 24 26 25 23 20 17 17 15 15 12 12 13 11 10 9 9 nan nan nan nan nan nan nan nan nan nan nan nan nan
nan 24 24 24 24 24 25 26 nan nan nan nan nan nan nan nan nan nan nan nan nan nan nan 33 32 29 28 29 25 25 25 29 21 21 22 26 24 22 25 26 26 26 27 27 26 24 23 25 24 24 24 23 21 21 21 21 23 25 25 25 24 22 19 18 15 13 12 12 12 10 11 11 nan nan nan nan nan nan nan nan nan nan nan nan nan
nan nan nan nan nan nan 24 nan nan nan nan nan nan nan nan nan nan nan nan nan nan nan nan nan nan 31 33 30 30 29 29 24 nan 19 29 25 25 25 25 24 25 25 25 26 27 26 25 24 23 24 25 25 23 21 22 22 22 22 23 24 26 25 22 19 16 13 12 12 13 11 11 12 nan nan 10 nan nan nan nan nan nan nan nan nan nan
nan nan nan nan nan nan nan nan nan nan nan nan nan nan nan nan nan nan nan nan nan nan nan nan nan nan nan nan nan 31 nan nan nan nan nan nan 27 28 26 26 28 27 26 24 24 25 27 27 25 25 25 25 26 24 24 23 24 24 22 22 25 26 25 21 18 16 13 11 13 11 10 11 14 nan 11 nan nan nan nan nan nan nan nan nan nan
nan nan nan nan nan nan nan nan nan nan nan nan nan nan nan nan nan nan nan nan nan nan nan nan nan nan nan nan nan nan nan nan nan nan nan nan nan nan nan nan nan nan nan nan nan nan 27 26 24 29 28 27 25 26 26 25 25 24 25 24 24 26 25 23 21 19 15 12 11 12 10 8 13 nan 13 nan nan nan nan nan nan nan nan nan nan
nan nan nan nan nan nan nan nan nan nan nan nan nan nan nan nan nan nan nan nan nan nan nan nan nan nan nan nan nan nan nan nan nan nan nan nan nan nan nan nan nan nan nan nan nan nan nan nan nan nan 28 28 26 25 26 26 24 22 21 22 21 23 25 23 21 17 16 15 11 13 10 8 10 nan 14 12 11 nan 11 nan nan nan nan nan nan
nan nan nan nan nan nan nan nan nan nan nan nan nan nan nan nan nan nan nan nan nan nan nan nan nan nan nan nan nan nan nan nan nan nan nan nan nan nan nan nan nan nan nan nan nan nan nan nan nan nan nan 25 26 24 24 22 19 18 16 15 18 20 23 23 21 18 13 12 12 13 12 8 9 13 14 13 13 nan 12 12 nan nan nan nan nan
nan nan nan nan nan nan nan nan nan nan nan nan nan nan nan nan nan nan nan nan nan nan nan nan nan nan nan nan nan nan nan nan nan nan nan nan nan nan nan nan nan nan nan nan nan nan nan nan nan nan nan 35 34 32 30 25 21 18 15 11 13 17 20 23 21 20 19 16 nan 11 12 9 10 10 12 14 13 nan 13 nan 12 nan nan nan nan
nan nan nan nan nan nan nan nan nan nan nan nan nan nan nan nan nan nan nan nan nan nan nan nan nan nan nan nan nan nan nan nan nan nan nan nan nan nan nan nan nan nan nan nan nan nan nan nan nan nan 37 35 37 37 32 29 26 nan 16 13 13 12 14 18 20 19 18 18 18 nan 11 11 10 10 11 16 14 12 13 10 nan 10 nan nan nan
nan nan nan nan nan nan nan nan nan nan nan nan nan nan nan nan nan nan nan nan nan nan nan nan nan nan nan nan nan nan nan nan nan nan nan nan nan nan nan nan nan nan nan nan nan nan nan nan nan nan nan nan 37 37 nan nan nan nan nan nan nan nan 18 19 20 21 20 18 19 19 nan 10 14 10 11 17 14 13 12 11 10 10 11 nan nan
nan nan nan nan nan nan nan nan nan nan nan nan nan nan nan nan nan nan nan nan nan nan nan nan nan nan nan nan nan nan nan nan nan nan nan nan nan nan nan nan nan nan nan nan nan nan nan nan nan nan nan nan nan nan nan nan nan nan nan nan nan nan 23 20 18 22 21 18 18 20 18 nan 10 15 12 13 14 13 14 12 nan nan nan nan nan
nan nan nan nan nan nan nan nan nan nan nan nan nan nan nan nan nan nan nan nan nan nan nan nan nan nan nan nan nan nan nan nan nan nan nan nan nan nan nan nan nan nan nan nan nan nan nan nan nan nan nan nan nan nan nan nan nan 26 23 nan nan nan 21 15 14 22 23 20 19 20 20 20 nan 17 19 17 16 17 nan nan nan nan nan nan nan
nan nan nan nan nan nan nan nan nan nan nan nan nan nan nan nan nan nan nan nan nan nan nan nan nan nan nan nan nan nan nan nan nan nan nan nan nan nan nan nan nan nan nan nan nan nan nan nan nan nan nan nan nan nan nan nan nan nan nan 28 nan nan nan nan 18 21 23 21 19 18 21 21 22 nan 24 22 20 21 18 nan nan nan nan nan nan
nan nan nan nan nan nan nan nan nan nan nan nan nan nan nan nan nan nan nan nan nan nan nan nan nan nan nan nan nan nan nan nan nan nan nan nan nan nan nan nan nan nan nan nan nan nan nan nan nan nan nan nan nan nan nan nan nan nan nan nan 32 nan nan nan nan 21 21 23 22 19 19 22 22 nan nan 24 23 21 22 nan nan nan nan nan nan
nan nan nan nan nan nan nan nan nan nan nan nan nan nan nan nan nan nan nan nan nan nan nan nan nan nan nan nan nan nan nan nan nan nan nan nan nan nan nan nan nan nan nan nan nan nan nan nan nan nan nan nan nan nan nan nan nan nan nan nan nan nan nan nan nan nan nan 20 23 23 22 22 22 24 23 22 21 20 20 20 nan nan nan nan nan
nan nan nan nan nan nan nan nan nan nan nan nan nan nan nan nan nan nan nan nan nan nan nan nan nan nan nan nan nan nan nan nan nan nan nan nan nan nan nan nan nan nan nan nan nan nan nan nan nan nan nan nan nan nan nan nan nan nan nan nan nan nan nan nan nan nan nan 20 23 26 26 25 21 20 23 22 21 19 20 21 nan nan nan nan nan
nan nan nan nan nan nan nan nan nan nan nan nan nan nan nan nan nan nan nan nan nan nan nan nan nan nan nan nan nan nan nan nan nan nan nan nan nan nan nan nan nan nan nan nan nan nan nan nan nan nan nan nan nan nan nan nan nan nan nan nan nan nan nan nan nan nan nan nan nan 25 26 25 22 18 20 23 nan 22 21 23 25 nan nan nan nan
nan nan nan nan nan nan nan nan nan nan nan nan nan nan nan nan nan nan nan nan nan nan nan nan nan nan nan nan nan nan nan nan nan nan nan nan nan nan nan nan nan nan nan nan nan nan nan nan nan nan nan nan nan nan nan nan nan nan nan nan nan nan nan nan nan nan nan nan nan 22 23 24 23 20 19 20 nan nan nan 23 24 23 nan nan nan
nan nan nan nan nan nan nan nan nan nan nan nan nan nan nan nan nan nan nan nan nan nan nan nan nan nan nan nan nan nan nan nan nan nan nan nan nan nan nan nan nan nan nan nan nan nan nan nan nan nan nan nan nan nan nan nan nan nan nan nan nan nan nan nan nan nan nan nan nan nan 23 24 23 22 20 20 22 24 nan nan nan nan nan nan nan
nan nan nan nan nan nan nan nan nan nan nan nan nan nan nan nan nan nan nan nan nan nan nan nan nan nan nan nan nan nan nan nan nan nan nan nan nan nan nan nan nan nan nan nan nan nan nan nan nan nan nan nan nan nan nan nan nan nan nan nan nan nan nan nan nan nan nan nan nan nan nan 23 24 22 21 22 22 24 nan nan nan nan nan nan nan
nan nan nan nan nan nan nan nan nan nan nan nan nan nan nan nan nan nan nan nan nan nan nan nan nan nan nan nan nan nan nan nan nan nan nan nan nan nan nan nan nan nan nan nan nan nan nan nan nan nan nan nan nan nan nan nan nan nan nan nan nan nan nan nan nan nan nan nan 29 27 nan nan 25 23 21 22 22 24 27 27 nan nan nan nan nan
nan nan nan nan nan nan nan nan nan nan nan nan nan nan nan nan nan nan nan nan nan nan nan nan nan nan nan nan nan nan nan nan nan nan nan nan nan nan nan nan nan nan nan nan nan nan nan nan nan nan nan nan nan nan nan nan nan nan nan nan nan nan nan nan nan nan nan nan nan nan nan 26 26 24 21 21 22 23 25 26 27 nan nan nan nan
nan nan nan nan nan nan nan nan nan nan nan nan nan nan nan nan nan nan nan nan nan nan nan nan nan nan nan nan nan nan nan nan nan nan nan nan nan nan nan nan nan nan nan nan nan nan nan nan nan nan nan nan nan nan nan nan nan nan nan nan nan nan nan nan nan nan nan nan nan nan nan nan nan 27 25 23 23 24 24 25 28 29 nan nan nan
nan nan nan nan nan nan nan nan nan nan nan nan nan nan nan nan nan nan nan nan nan nan nan nan nan nan nan nan nan nan nan nan nan nan nan nan nan nan nan nan nan nan nan nan nan nan nan nan nan nan nan nan nan nan nan nan nan nan nan nan nan nan nan nan nan nan nan nan nan nan nan nan nan 28 28 28 25 25 25 25 26 28 nan nan nan
nan nan nan nan nan nan nan nan nan nan nan nan nan nan nan nan nan nan nan nan nan nan nan nan nan nan nan nan nan nan nan nan nan nan nan nan nan nan nan nan nan nan nan nan nan nan nan nan nan nan nan nan nan nan nan nan nan nan nan nan nan nan nan nan nan nan nan nan nan nan nan nan nan nan nan nan 26 24 26 26 25 25 29 nan nan
nan nan nan nan nan nan nan nan nan nan nan nan nan nan nan nan nan nan nan nan nan nan nan nan nan nan nan nan nan nan nan nan nan nan nan nan nan nan nan nan nan nan nan nan nan nan nan nan nan nan nan nan nan nan nan nan nan nan nan nan nan nan nan nan nan nan nan nan nan nan nan nan nan nan nan nan nan nan nan 27 25 25 26 31 nan
nan nan nan nan nan nan nan nan nan nan nan nan nan nan nan nan nan nan nan nan nan nan nan nan nan nan nan nan nan nan nan nan nan nan nan nan nan nan nan nan nan nan nan nan nan nan nan nan nan nan nan nan nan nan nan nan nan nan nan nan nan nan nan nan nan nan nan nan nan nan nan nan nan nan nan nan nan nan nan nan 28 25 26 30 nan
nan nan nan nan nan nan nan nan nan nan nan nan nan nan nan nan nan nan nan nan nan nan nan nan nan nan nan nan nan nan nan nan nan nan nan nan nan nan nan nan nan nan nan nan nan nan nan nan nan nan nan nan nan nan nan nan nan nan nan nan nan nan nan nan nan nan nan nan nan nan nan nan nan nan nan nan nan nan nan nan nan 32 28 29 33
nan nan nan nan nan nan nan nan nan nan nan nan nan nan nan nan nan nan nan nan nan nan nan nan nan nan nan nan nan nan nan nan nan nan nan nan nan nan nan nan nan nan nan nan nan nan nan nan nan nan nan nan nan nan nan nan nan nan nan nan nan nan nan nan nan nan nan nan nan nan nan nan nan nan nan nan nan nan nan nan nan nan 31 30 30
nan nan nan nan nan nan nan nan nan nan nan nan nan nan nan nan nan nan nan nan nan nan nan nan nan nan nan nan nan nan nan nan nan nan nan nan nan nan nan nan nan nan nan nan nan nan nan nan nan nan nan nan nan nan nan nan nan nan nan nan nan nan nan nan nan nan nan nan nan nan nan nan nan nan nan nan nan nan nan nan nan nan 29 30 29
nan nan nan nan nan nan nan nan nan nan nan nan nan nan nan nan nan nan nan nan nan nan nan nan nan nan nan nan nan nan nan nan nan nan nan nan nan nan nan nan nan nan nan nan nan nan nan nan nan nan nan nan nan nan nan nan nan nan nan nan nan nan nan nan nan nan nan nan nan nan nan nan nan nan nan nan nan nan nan nan nan nan nan 29 29
nan nan nan nan nan nan nan nan nan nan nan nan nan nan nan nan nan nan nan nan nan nan nan nan nan nan nan nan nan nan nan nan nan nan nan nan nan nan nan nan nan nan nan nan nan nan nan nan nan nan nan nan nan nan nan nan nan nan nan nan nan nan nan nan nan nan nan nan nan nan nan nan nan nan nan nan nan nan nan nan nan nan nan 25 28
nan nan nan nan nan nan nan nan nan nan nan nan nan nan nan nan nan nan nan nan nan nan nan nan nan nan nan nan nan nan nan nan nan nan nan nan nan nan nan nan nan nan nan nan nan nan nan nan nan nan nan nan nan nan nan nan nan nan nan nan nan nan nan nan nan nan nan nan nan nan nan nan nan nan nan nan nan nan nan nan nan nan nan nan 26
nan nan nan nan nan nan nan nan nan nan nan nan nan nan nan nan nan nan nan nan nan nan nan nan nan nan nan nan nan nan nan nan nan nan nan nan nan nan nan nan nan nan nan nan nan nan nan nan nan nan nan nan nan nan nan nan nan nan nan nan nan nan nan nan nan nan nan nan nan nan nan nan nan nan nan nan nan nan nan nan nan nan nan nan nan
nan nan nan nan nan nan nan nan nan nan nan nan nan nan nan nan nan nan nan nan nan nan nan nan nan nan nan nan nan nan nan nan nan nan nan nan nan nan nan nan nan nan nan nan nan nan nan nan nan nan nan nan nan nan nan nan nan nan nan nan nan nan nan nan nan nan nan nan nan nan nan nan nan nan nan nan nan nan nan nan nan nan nan nan nan
nan nan nan nan nan nan nan nan nan nan nan nan nan nan nan nan nan nan nan nan nan nan nan nan nan nan nan nan nan nan nan nan nan nan nan nan nan nan nan nan nan nan nan nan nan nan nan nan nan nan nan nan nan nan nan nan nan nan nan nan nan nan nan nan nan nan nan nan nan nan nan nan nan nan nan nan nan nan nan nan nan nan nan nan nan
nan nan nan nan nan nan nan nan nan nan nan nan nan nan nan nan nan nan nan nan nan nan nan nan nan nan nan nan nan nan nan nan nan nan nan nan nan nan nan nan nan nan nan nan nan nan nan nan nan nan nan nan nan nan nan nan nan nan nan nan nan nan nan nan nan nan nan nan nan nan nan nan nan nan nan nan nan nan nan nan nan nan nan nan nan
Wind_Direction
334 337 338 332 325 340 340 342 333 330 316 314 324 338 332 319 319 341 345 329 325 332 334 341 341 341 340 341 339 339 339 338 336 329 330 324 320 330 332 338 338 337 339 340 340 340 339 339 341 344 336 334 331 327 322 319 nan nan nan nan nan nan nan nan nan nan nan nan nan nan nan nan nan nan 297 297 305 305 302 294 293 299 297 292 292
330 336 335 346 337 343 344 354 335 330 314 320 339 336 315 320 327 336 336 334 335 341 336 337 330 330 335 335 331 329 332 333 331 328 321 323 298 320 338 337 337 336 338 339 338 337 338 341 344 344 334 339 327 326 325 317 nan nan nan nan nan nan nan nan nan nan nan nan nan nan nan nan nan nan nan 299 303 307 304 301 304 301 296 296 288
331 332 328 347 356 345 348 351 336 331 320 337 345 330 325 333 335 344 343 338 339 335 329 329 329 333 340 341 338 337 335 336 334 329 329 317 315 319 317 322 329 331 333 334 333 319 341 342 342 347 348 334 334 332 328 323 318 nan nan nan nan nan nan nan nan nan nan nan nan nan nan nan nan nan nan 301 302 308 304 301 300 296 294 294 285
324 322 338 330 357 345 353 355 339 338 342 349 332 343 341 341 350 350 338 332 332 329 329 333 332 331 329 326 329 329 329 329 323 322 324 321 317 322 323 322 330 335 335 336 325 329 347 346 344 343 346 346 342 331 331 329 325 316 nan nan nan nan nan nan nan nan nan nan nan nan nan nan nan nan nan nan 301 308 305 300 299 298 295 293 287
311 325 325 339 340 329 349 339 342 328 337 352 336 340 347 347 353 346 338 341 341 340 338 336 334 333 326 325 324 326 325 323 324 324 322 324 319 317 316 316 316 325 337 339 330 336 343 348 348 340 340 347 346 341 335 337 330 321 321 320 nan nan nan nan nan nan nan nan nan nan nan nan nan nan nan nan nan 302 304 303 303 300 294 290 285
301 303 310 314 323 326 321 338 327 331 334 348 334 350 343 345 335 341 341 340 341 341 342 340 338 334 333 328 329 330 326 325 325 325 325 322 316 318 323 326 328 316 314 333 341 338 342 342 348 347 349 352 354 347 344 338 343 331 320 314 nan nan nan nan nan nan nan nan nan nan nan nan nan nan nan nan nan 298 305 303 305 303 294 nan 283
292 291 286 304 303 307 310 320 314 320 336 339 336 332 337 336 326 325 326 333 335 333 331 329 328 329 326 325 324 322 321 322 322 322 321 319 317 325 328 329 326 328 326 331 336 339 343 340 346 350 353 355 351 347 341 339 347 336 317 312 315 nan nan nan nan nan nan nan nan nan nan nan nan nan nan nan nan nan nan nan 308 304 nan nan nan
285 286 286 285 293 291 299 301 303 308 313 320 321 322 322 323 326 324 327 332 330 329 329 329 327 326 326 326 325 322 320 321 321 319 318 317 321 327 326 325 333 338 334 328 331 336 348 345 345 351 354 354 350 337 341 342 334 336 331 325 317 324 nan nan nan nan nan nan nan nan nan nan nan nan nan nan nan nan nan nan 307 nan nan nan nan
281 278 282 285 288 296 300 302 306 306 312 315 315 318 318 319 322 321 325 324 323 322 323 324 325 327 326 326 326 325 324 323 321 319 316 319 323 326 328 325 327 333 330 331 327 330 335 346 349 350 349 352 353 345 345 347 341 337 337 336 321 316 nan nan nan nan nan nan nan nan nan nan nan nan nan nan nan nan nan nan nan nan 291 nan nan
280 282 286 289 291 293 295 297 301 305 304 307 313 314 314 313 313 315 315 317 319 318 320 320 321 324 324 324 326 324 325 325 322 320 318 315 318 323 326 326 325 326 327 329 329 326 331 342 352 354 356 354 354 353 355 356 354 343 339 338 316 317 315 nan nan nan nan nan nan nan nan nan nan nan nan nan nan nan nan nan nan nan nan nan nan
275 278 284 282 286 288 291 293 295 298 298 297 297 300 297 299 301 302 307 308 308 309 309 309 311 317 321 327 329 329 328 327 324 319 316 315 320 324 318 318 321 323 325 327 326 327 330 328 329 331 337 352 353 355 358 359 358 1 346 338 322 323 322 318 nan nan nan nan nan nan nan nan nan nan nan nan nan nan nan nan nan nan nan nan nan
270 270 271 277 281 281 283 282 287 290 290 290 290 290 287 287 288 292 294 296 297 298 300 298 306 313 319 317 319 323 325 325 321 318 314 312 313 315 316 318 318 315 321 324 323 326 327 326 330 332 330 341 354 353 355 356 354 349 354 345 336 327 323 321 314 nan nan nan nan nan nan nan nan nan nan nan nan nan nan nan nan nan nan nan nan
269 270 270 273 277 280 281 282 284 286 289 287 285 283 283 285 285 287 283 286 291 293 288 286 295 299 297 305 309 317 323 324 319 313 309 311 310 311 313 311 306 306 309 315 322 326 324 326 330 333 332 330 339 350 352 352 355 353 351 352 344 339 333 329 324 312 311 nan nan nan nan nan nan nan nan nan nan nan nan nan nan nan nan nan nan
271 271 272 273 278 282 282 282 282 284 284 284 283 285 284 285 287 289 290 290 293 287 284 285 289 287 287 292 301 303 306 303 302 301 304 307 311 311 308 307 308 309 311 313 314 318 324 324 325 329 332 333 333 334 335 340 346 353 350 346 345 341 336 329 331 321 312 316 326 nan 311 nan nan nan nan nan nan nan nan nan nan nan nan nan nan
271 275 277 278 281 284 285 286 285 287 289 289 288 nan nan 289 289 nan nan nan nan 292 289 291 292 291 299 298 292 291 298 299 289 291 294 310 308 307 310 308 305 304 305 305 306 312 313 319 323 325 327 333 336 334 333 334 337 346 351 351 347 348 343 341 338 334 324 316 321 330 315 306 nan nan nan nan nan nan nan nan nan nan nan nan nan
nan 279 285 286 286 288 290 290 nan nan nan nan nan nan nan nan nan nan nan nan nan nan nan 294 293 291 291 294 299 298 296 290 280 289 301 291 283 288 293 296 301 302 302 304 305 308 309 315 319 322 323 326 332 333 333 334 344 347 350 349 349 348 352 347 342 337 328 323 318 323 310 303 nan nan nan nan nan nan nan nan nan nan nan nan nan
nan nan nan nan nan nan 289 nan nan nan nan nan nan nan nan nan nan nan nan nan nan nan nan nan nan 297 293 294 295 293 290 288 nan 299 293 282 289 284 285 284 285 285 288 293 297 301 307 306 308 311 317 320 323 328 331 334 335 336 340 346 348 347 348 348 342 335 329 326 322 321 308 301 nan nan 281 nan nan nan nan nan nan nan nan nan nan
nan nan nan nan nan nan nan nan nan nan nan nan nan nan nan nan nan nan nan nan nan nan nan nan nan nan nan nan nan 296 nan nan nan nan nan nan 288 288 286 284 280 275 277 278 281 284 289 292 293 297 304 310 315 321 326 332 331 329 329 331 343 347 347 346 347 344 339 331 326 323 319 300 296 nan 283 nan nan nan nan nan nan nan nan nan nan
nan nan nan nan nan nan nan nan nan nan nan nan nan nan nan nan nan nan nan nan nan nan nan nan nan nan nan nan nan nan nan nan nan nan nan nan nan nan nan nan nan nan nan nan nan nan 277 275 285 294 300 299 309 316 318 323 330 331 338 336 336 342 345 345 345 352 352 340 331 319 298 308 293 nan 285 nan nan nan nan nan nan nan nan nan nan
nan nan nan nan nan nan nan nan nan nan nan nan nan nan nan nan nan nan nan nan nan nan nan nan nan nan nan nan nan nan nan nan nan nan nan nan nan nan nan nan nan nan nan nan nan nan nan nan nan nan 295 305 313 314 316 313 311 314 316 331 334 332 340 344 341 338 348 349 341 308 294 291 302 nan 289 284 273 nan 266 nan nan nan nan nan nan
nan nan nan nan nan nan nan nan nan nan nan nan nan nan nan nan nan nan nan nan nan nan nan nan nan nan nan nan nan nan nan nan nan nan nan nan nan nan nan nan nan nan nan nan nan nan nan nan nan nan nan 301 290 280 274 273 282 287 291 315 331 334 335 340 336 332 330 321 336 325 309 298 304 295 294 288 275 nan 265 267 nan nan nan nan nan
nan nan nan nan nan nan nan nan nan nan nan nan nan nan nan nan nan nan nan nan nan nan nan nan nan nan nan nan nan nan nan nan nan nan nan nan nan nan nan nan nan nan nan nan nan nan nan nan nan nan nan 274 279 281 278 279 279 286 296 311 325 322 320 329 329 329 331 326 nan 310 302 290 284 293 291 290 286 nan 264 nan 266 nan nan nan nan
nan nan nan nan nan nan nan nan nan nan nan nan nan nan nan nan nan nan nan nan nan nan nan nan nan nan nan nan nan nan nan nan nan nan nan nan nan nan nan nan nan nan nan nan nan nan nan nan nan nan 276 278 275 277 278 274 273 nan 266 270 280 292 310 311 322 326 327 322 315 nan 305 293 282 272 289 287 284 281 273 279 nan 273 nan nan nan
nan nan nan nan nan nan nan nan nan nan nan nan nan nan nan nan nan nan nan nan nan nan nan nan nan nan nan nan nan nan nan nan nan nan nan nan nan nan nan nan nan nan nan nan nan nan nan nan nan nan nan nan 275 274 nan nan nan nan nan nan nan nan 319 325 326 325 327 327 311 306 nan 307 291 267 263 278 274 279 277 278 272 273 271 nan nan
nan nan nan nan nan nan nan nan nan nan nan nan nan nan nan nan nan nan nan nan nan nan nan nan nan nan nan nan nan nan nan nan nan nan nan nan nan nan nan nan nan nan nan nan nan nan nan nan nan nan nan nan nan nan nan nan nan nan nan nan nan nan 321 330 333 325 322 319 308 303 306 nan 273 274 258 262 273 268 269 267 nan nan nan nan nan
nan nan nan nan nan nan nan nan nan nan nan nan nan nan nan nan nan nan nan nan nan nan nan nan nan nan nan nan nan nan nan nan nan nan nan nan nan nan nan nan nan nan nan nan nan nan nan nan nan nan nan nan nan nan nan nan nan 257 255 nan nan nan 311 317 335 331 321 314 308 303 298 293 nan 255 254 247 248 248 nan nan nan nan nan nan nan
nan nan nan nan nan nan nan nan nan nan nan nan nan nan nan nan nan nan nan nan nan nan nan nan nan nan nan nan nan nan nan nan nan nan nan nan nan nan nan nan nan nan nan nan nan nan nan nan nan nan nan nan nan nan nan nan nan nan nan 267 nan nan nan nan 296 311 316 311 306 300 297 295 275 nan 239 243 243 243 240 nan nan nan nan nan nan
nan nan nan nan nan nan nan nan nan nan nan nan nan nan nan nan nan nan nan nan nan nan nan nan nan nan nan nan nan nan nan nan nan nan nan nan nan nan nan nan nan nan nan nan nan nan nan nan nan nan nan nan nan nan nan nan nan nan nan nan 268 nan nan nan nan 295 304 310 315 309 302 301 280 nan nan 230 234 240 246 nan nan nan nan nan nan
nan nan nan nan nan nan nan nan nan nan nan nan nan nan nan nan nan nan nan nan nan nan nan nan nan nan nan nan nan nan nan nan nan nan nan nan nan nan nan nan nan nan nan nan nan nan nan nan nan nan nan nan nan nan nan nan nan nan nan nan nan nan nan nan nan nan nan 304 313 316 311 310 293 261 241 230 231 237 244 247 nan nan nan nan nan
nan nan nan nan nan nan nan nan nan nan nan nan nan nan nan nan nan nan nan nan nan nan nan nan nan nan nan nan nan nan nan nan nan nan nan nan nan nan nan nan nan nan nan nan nan nan nan nan nan nan nan nan nan nan nan nan nan nan nan nan nan nan nan nan nan nan nan 288 297 309 313 316 308 273 245 233 231 235 240 244 nan nan nan nan nan
nan nan nan nan nan nan nan nan nan nan nan nan nan nan nan nan nan nan nan nan nan nan nan nan nan nan nan nan nan nan nan nan nan nan nan nan nan nan nan nan nan nan nan nan nan nan nan nan nan nan nan nan nan nan nan nan nan nan nan nan nan nan nan nan nan nan nan nan nan 295 302 310 313 291 256 243 nan 230 231 239 246 nan nan nan nan
nan nan nan nan nan nan nan nan nan nan nan nan nan nan nan nan nan nan nan nan nan nan nan nan nan nan nan nan nan nan nan nan nan nan nan nan nan nan nan nan nan nan nan nan nan nan nan nan nan nan nan nan nan nan nan nan nan nan nan nan nan nan nan nan nan nan nan nan nan 288 292 299 304 299 282 262 nan nan nan 231 242 252 nan nan nan
nan nan nan nan nan nan nan nan nan nan nan nan nan nan nan nan nan nan nan nan nan nan nan nan nan nan nan nan nan nan nan nan nan nan nan nan nan nan nan nan nan nan nan nan nan nan nan nan nan nan nan nan nan nan nan nan nan nan nan nan nan nan nan nan nan nan nan nan nan nan 280 286 295 301 300 286 267 251 nan nan nan nan nan nan nan
nan nan nan nan nan nan nan nan nan nan nan nan nan nan nan nan nan nan nan nan nan nan nan nan nan nan nan nan nan nan nan nan nan nan nan nan nan nan nan nan nan nan nan nan nan nan nan nan nan nan nan nan nan nan nan nan nan nan nan nan nan nan nan nan nan nan nan nan nan nan nan 278 287 292 292 288 283 267 nan nan nan nan nan nan nan
nan nan nan nan nan nan nan nan nan nan nan nan nan nan nan nan nan nan nan nan nan nan nan nan nan nan nan nan nan nan nan nan nan nan nan nan nan nan nan nan nan nan nan nan nan nan nan nan nan nan nan nan nan nan nan nan nan nan nan nan nan nan nan nan nan nan nan nan 261 265 nan nan 273 281 287 285 284 278 264 249 nan nan nan nan nan
nan nan nan nan nan nan nan nan nan nan nan nan nan nan nan nan nan nan nan nan nan nan nan nan nan nan nan nan nan nan nan nan nan nan nan nan nan nan nan nan nan nan nan nan nan nan nan nan nan nan nan nan nan nan nan nan nan nan nan nan nan nan nan nan nan nan nan nan nan nan nan 262 267 275 283 284 281 280 275 265 251 nan nan nan nan
nan nan nan nan nan nan nan nan nan nan nan nan nan nan nan nan nan nan nan nan nan nan nan nan nan nan nan nan nan nan nan nan nan nan nan nan nan nan nan nan nan nan nan nan nan nan nan nan nan nan nan nan nan nan nan nan nan nan nan nan nan nan nan nan nan nan nan nan nan nan nan nan nan 259 263 268 273 277 278 272 263 254 nan nan nan
nan nan nan nan nan nan nan nan nan nan nan nan nan nan nan nan nan nan nan nan nan nan nan nan nan nan nan nan nan nan nan nan nan nan nan nan nan nan nan nan nan nan nan nan nan nan nan nan nan nan nan nan nan nan nan nan nan nan nan nan nan nan nan nan nan nan nan nan nan nan nan nan nan 244 253 262 266 273 276 276 272 262 nan nan nan
nan nan nan nan nan nan nan nan nan nan nan nan nan nan nan nan nan nan nan nan nan nan nan nan nan nan nan nan nan nan nan nan nan nan nan nan nan nan nan nan nan nan nan nan nan nan nan nan nan nan nan nan nan nan nan nan nan nan nan nan nan nan nan nan nan nan nan nan nan nan nan nan nan nan nan nan 256 264 271 276 277 272 261 nan nan
nan nan nan nan nan nan nan nan nan nan nan nan nan nan nan nan nan nan nan nan nan nan nan nan nan nan nan nan nan nan nan nan nan nan nan nan nan nan nan nan nan nan nan nan nan nan nan nan nan nan nan nan nan nan nan nan nan nan nan nan nan nan nan nan nan nan nan nan nan nan nan nan nan nan nan nan nan nan nan 271 278 279 276 262 nan
nan nan nan nan nan nan nan nan nan nan nan nan nan nan nan nan nan nan nan nan nan nan nan nan nan nan nan nan nan nan nan nan nan nan nan nan nan nan nan nan nan nan nan nan nan nan nan nan nan nan nan nan nan nan nan nan nan nan nan nan nan nan nan nan nan nan nan nan nan nan nan nan nan nan nan nan nan nan nan nan 266 279 280 273 nan
nan nan nan nan nan nan nan nan nan nan nan nan nan nan nan nan nan nan nan nan nan nan nan nan nan nan nan nan nan nan nan nan nan nan nan nan nan nan nan nan nan nan nan nan nan nan nan nan nan nan nan nan nan nan nan nan nan nan nan nan nan nan nan nan nan nan nan nan nan nan nan nan nan nan nan nan nan nan nan nan nan 259 271 279 271
nan nan nan nan nan nan nan nan nan nan nan nan nan nan nan nan nan nan nan nan nan nan nan nan nan nan nan nan nan nan nan nan nan nan nan nan nan nan nan nan nan nan nan nan nan nan nan nan nan nan nan nan nan nan nan nan nan nan nan nan nan nan nan nan nan nan nan nan nan nan nan nan nan nan nan nan nan nan nan nan nan nan 270 277 277
nan nan nan nan nan nan nan nan nan nan nan nan nan nan nan nan nan nan nan nan nan nan nan nan nan nan nan nan nan nan nan nan nan nan nan nan nan nan nan nan nan nan nan nan nan nan nan nan nan nan nan nan nan nan nan nan nan nan nan nan nan nan nan nan nan nan nan nan nan nan nan nan nan nan nan nan nan nan nan nan nan nan 270 276 280
nan nan nan nan nan nan nan nan nan nan nan nan nan nan nan nan nan nan nan nan nan nan nan nan nan nan nan nan nan nan nan nan nan nan nan nan nan nan nan nan nan nan nan nan nan nan nan nan nan nan nan nan nan nan nan nan nan nan nan nan nan nan nan nan nan nan nan nan nan nan nan nan nan nan nan nan nan nan nan nan nan nan nan 273 277
nan nan nan nan nan nan nan nan nan nan nan nan nan nan nan nan nan nan nan nan nan nan nan nan nan nan nan nan nan nan nan nan nan nan nan nan nan nan nan nan nan nan nan nan nan nan nan nan nan nan nan nan nan nan nan nan nan nan nan nan nan nan nan nan nan nan nan nan nan nan nan nan nan nan nan nan nan nan nan nan nan nan nan 268 275
nan nan nan nan nan nan nan nan nan nan nan nan nan nan nan nan nan nan nan nan nan nan nan nan nan nan nan nan nan nan nan nan nan nan nan nan nan nan nan nan nan nan nan nan nan nan nan nan nan nan nan nan nan nan nan nan nan nan nan nan nan nan nan nan nan nan nan nan nan nan nan nan nan nan nan nan nan nan nan nan nan nan nan nan 275
nan nan nan nan nan nan nan nan nan nan nan nan nan nan nan nan nan nan nan nan nan nan nan nan nan nan nan nan nan nan nan nan nan nan nan nan nan nan nan nan nan nan nan nan nan nan nan nan nan nan nan nan nan nan nan nan nan nan nan nan nan nan nan nan nan nan nan nan nan nan nan nan nan nan nan nan nan nan nan nan nan nan nan nan nan
nan nan nan nan nan nan nan nan nan nan nan nan nan nan nan nan nan nan nan nan nan nan nan nan nan nan nan nan nan nan nan nan nan nan nan nan nan nan nan nan nan nan nan nan nan nan nan nan nan nan nan nan nan nan nan nan nan nan nan nan nan nan nan nan nan nan nan nan nan nan nan nan nan nan nan nan nan nan nan nan nan nan nan nan nan
nan nan nan nan nan nan nan nan nan nan nan nan nan nan nan nan nan nan nan nan nan nan nan nan nan nan nan nan nan nan nan nan nan nan nan nan nan nan nan nan nan nan nan nan nan nan nan nan nan nan nan nan nan nan nan nan nan nan nan nan nan nan nan nan nan nan nan nan nan nan nan nan nan nan nan nan nan nan nan nan nan nan nan nan nan
nan nan nan nan nan nan nan nan nan nan nan nan nan nan nan nan nan nan nan nan nan nan nan nan nan nan nan nan nan nan nan nan nan nan nan nan nan nan nan nan nan nan nan nan nan nan nan nan nan nan nan nan nan nan nan nan nan nan nan nan nan nan nan nan nan nan nan nan nan nan nan nan nan nan nan nan nan nan nan nan nan nan nan nan nan